User: anonymous   Login
Location: Unspecified
(0.0000°N, 0.0000°E)
Time: 15:12:59
(UTC+00:00)
Language:

DELFI C3 - Orbit

View from above orbital plane
View from above orbital plane
View from above satellite
View from above satellite

Ground track
Ground track

The orbit data is extracted from the following two-line orbital elements,

1 32789U 08021G   20293.16399477  .00001046  00000-0  71866-4 0  9995
2 32789  97.4066 331.5805 0010487 248.1893 111.8220 15.08011783680556
Epoch (UTC): 19 October 2020 03:56:09
Eccentricity: 0.0010487
inclination: 97.4066°
perigee height: 535 km
apogee height: 549 km
right ascension of ascending node: 331.5805°
argument of perigee: 248.1893°
revolutions per day: 15.08011783
mean anomaly at epoch: 111.8220°
orbit number at epoch: 68055

The dashed part of the orbit path shows where the satellite is in the earth's shadow,  

DLR